Weather History for KAEX - March, 2014

Change the Weather History Date:

Monday, March 17, 2014

  Actual Average Record
Temperature  
Mean Temperature 42 °F 60 °F  
Max Temperature 47 °F 71 °F 86 °F (2015)
Min Temperature 36 °F 48 °F 31 °F (1923)
Degree Days  
Heating Degree Days 23 6  
Month to date heating degree days 224 139  
Since 1 July heating degree days 2240 1804  
Cooling Degree Days 0 1  
Month to date cooling degree days 2 17  
Year to date cooling degree days 13 34  
Moisture  
Dew Point 35 °F    
Average Humidity 79    
Maximum Humidity 92    
Minimum Humidity 65    
Precipitation  
Precipitation 0.00 in 0.15 in 3.52 in (1961)
Month to date precipitation 2.02 2.94  
Year to date precipitation 8.40 12.62  
Snow  
Snow 0.00 in - T in (1941)
Month to date snowfall 0.2  
Since 1 July snowfall 5.0  
Snow Depth 0.00 in    
Sea Level Pressure  
Sea Level Pressure 29.89 in    
Wind  
Wind Speed 9 mph (North)    
Max Wind Speed 18 mph    
Max Gust Speed 23 mph    
Visibility 10 miles    
Events      
T = Trace of Precipitation, MM = Missing Value Source: NWS Daily Summary

Daily Weather History Graph

Daily Weather History Graph

Search for Another Location

Airport or City:

Trip Planner

Search our weather history database for the weather conditions in past years. The results will help you decide how hot, cold, wet, or windy it might be!

Date:

Astronomy

Mar. 17, 2014 Rise Set
Actual Time 7:17 AM CDT 7:19 PM CDT
Civil Twilight 6:53 AM CDT 7:43 PM CDT
Nautical Twilight 6:25 AM CDT 8:12 PM CDT
Astronomical Twilight 5:57 AM CDT 8:40 PM CDT
Moon 8:30 PM CDT (3/17) 7:38 AM CDT (3/17)
Length of Visible Light 12h 50m
Length of Day
12h 02m
Full, 99% of the Moon is Illuminated
Mar 17
Full
Mar 23
Last Quarter
Mar 30
New
Apr 7
First Quarter
Apr 15
Full

Hourly Weather History & Observations

Time (CDT) Temp. Windchill Dew Point Humidity Pressure Visibility Wind Dir Wind Speed Gust Speed Precip Events Conditions
12:53 AM 45.0 °F 39.3 °F 39.9 °F 82% 29.88 in 10.0 mi NNW 11.5 mph 23.0 mph N/A   Overcast
1:25 AM 45.0 °F 38.5 °F 39.0 °F 80% 29.87 in 10.0 mi NNW 13.8 mph - N/A   Overcast
1:53 AM 45.0 °F 39.7 °F 39.0 °F 80% 29.88 in 10.0 mi NNW 10.4 mph - N/A   Overcast
2:53 AM 44.1 °F 39.0 °F 39.0 °F 82% 29.88 in 10.0 mi North 9.2 mph - N/A   Overcast
3:53 AM 43.0 °F 35.7 °F 36.0 °F 76% 29.89 in 10.0 mi NNW 15.0 mph - N/A   Overcast
4:41 AM 41.0 °F 35.2 °F 36.0 °F 82% 29.88 in 10.0 mi NNW 9.2 mph 20.7 mph N/A   Overcast
4:53 AM 42.1 °F 35.2 °F 35.1 °F 76% 29.91 in 10.0 mi North 12.7 mph - N/A   Overcast
5:53 AM 41.0 °F 35.2 °F 35.1 °F 79% 29.91 in 10.0 mi North 9.2 mph - N/A   Overcast
6:40 AM 39.9 °F 32.9 °F 35.1 °F 83% 29.87 in 10.0 mi North 11.5 mph - 0.00 in   Overcast
6:53 AM 39.0 °F 32.8 °F 34.0 °F 82% 29.89 in 10.0 mi North 9.2 mph - 0.00 in   Mostly Cloudy
7:53 AM 37.9 °F 30.5 °F 33.1 °F 83% 29.91 in 10.0 mi NNW 11.5 mph - N/A   Scattered Clouds
8:38 AM 39.9 °F 33.4 °F 33.1 °F 77% 29.91 in 10.0 mi NNW 10.4 mph - N/A   Overcast
8:53 AM 39.0 °F 32.8 °F 33.1 °F 79% 29.92 in 10.0 mi NNW 9.2 mph - N/A   Overcast
9:53 AM 39.9 °F 32.9 °F 32.0 °F 73% 29.93 in 10.0 mi NNW 11.5 mph - N/A   Overcast
10:53 AM 42.1 °F 34.9 °F 33.1 °F 70% 29.94 in 10.0 mi NNW 13.8 mph - N/A   Overcast
11:53 AM 42.1 °F 34.2 °F 33.1 °F 70% 29.92 in 10.0 mi NW 16.1 mph - N/A   Overcast
12:53 PM 42.1 °F 35.7 °F 33.1 °F 70% 29.92 in 10.0 mi NNW 11.5 mph - N/A   Overcast
1:53 PM 43.0 °F 36.4 °F 34.0 °F 71% 29.89 in 10.0 mi NNW 12.7 mph - N/A   Overcast
2:53 PM 45.0 °F 40.6 °F 35.1 °F 68% 29.87 in 10.0 mi NW 8.1 mph - N/A   Overcast
3:53 PM 46.0 °F 41.9 °F 36.0 °F 68% 29.86 in 10.0 mi NNW 8.1 mph - N/A   Overcast
4:53 PM 46.0 °F 42.5 °F 36.0 °F 68% 29.86 in 10.0 mi NW 6.9 mph - N/A   Overcast
5:35 PM 46.0 °F 44.8 °F 36.0 °F 68% 29.85 in 10.0 mi NNW 3.5 mph - N/A   Overcast
5:53 PM 46.9 °F - 36.0 °F 66% 29.86 in 10.0 mi North 3.5 mph - N/A   Overcast
6:53 PM 46.0 °F 44.8 °F 37.0 °F 71% 29.86 in 10.0 mi SE 3.5 mph - N/A   Partly Cloudy
7:53 PM 44.1 °F 42.5 °F 37.0 °F 76% 29.87 in 10.0 mi SE 3.5 mph - N/A   Clear
8:53 PM 41.0 °F 39.0 °F 36.0 °F 82% 29.87 in 10.0 mi East 3.5 mph - N/A   Clear
9:53 PM 41.0 °F 36.4 °F 36.0 °F 82% 29.88 in 10.0 mi East 6.9 mph - N/A   Clear
10:53 PM 37.9 °F 34.4 °F 35.1 °F 89% 29.89 in 10.0 mi SE 4.6 mph - N/A   Clear
11:53 PM 37.9 °F 35.5 °F 35.1 °F 89% 29.90 in 10.0 mi ESE 3.5 mph - N/A   Clear